TimeCDT,TemperatureF,Dew PointF,Humidity,Sea Level PressureIn,VisibilityMPH,Wind Direction,Wind SpeedMPH,Gust SpeedMPH,PrecipitationIn,Events,Conditions,WindDirDegrees,DateUTC
12:15 AM,39.2,37.4,93,29.68,7.0,North,15.0,-,N/A,,Overcast,350,2013-03-10 06:15:00
12:35 AM,39.2,37.4,93,29.66,10.0,North,12.7,20.7,N/A,,Overcast,360,2013-03-10 06:35:00
12:55 AM,39.2,37.4,93,29.67,10.0,North,12.7,16.1,N/A,,Overcast,10,2013-03-10 06:55:00
1:15 AM,39.2,35.6,87,29.65,10.0,North,15.0,-,N/A,,Overcast,10,2013-03-10 07:15:00
1:35 AM,39.2,35.6,87,29.66,10.0,North,11.5,17.3,N/A,,Overcast,10,2013-03-10 07:35:00
1:55 AM,39.2,35.6,87,29.64,10.0,NNE,16.1,21.9,N/A,,Overcast,20,2013-03-10 07:55:00
3:15 AM,37.4,35.6,93,29.65,10.0,North,13.8,18.4,N/A,,Overcast,10,2013-03-10 08:15:00
3:35 AM,37.4,35.6,93,29.68,4.0,North,15.0,-,N/A,Rain,Light Rain,350,2013-03-10 08:35:00
3:55 AM,37.4,33.8,87,29.69,3.0,North,20.7,26.5,0.01,Rain,Light Rain,350,2013-03-10 08:55:00
4:15 AM,35.6,33.8,93,29.69,4.0,North,13.8,24.2,0.03,Rain,Light Rain,350,2013-03-10 09:15:00
4:35 AM,35.6,33.8,93,29.67,7.0,North,20.7,26.5,0.03,Rain,Light Rain,10,2013-03-10 09:35:00
4:55 AM,35.6,32.0,87,29.69,10.0,North,19.6,26.5,0.03,,Overcast,10,2013-03-10 09:55:00
5:15 AM,35.6,32.0,87,29.67,10.0,North,20.7,28.8,N/A,,Overcast,360,2013-03-10 10:15:00
5:35 AM,35.6,32.0,87,29.69,10.0,North,23.0,29.9,N/A,,Overcast,360,2013-03-10 10:35:00
5:55 AM,35.6,32.0,87,29.69,10.0,North,20.7,29.9,N/A,,Drizzle,360,2013-03-10 10:55:00
6:15 AM,35.6,32.0,87,29.74,10.0,North,20.7,26.5,0.01,,Overcast,360,2013-03-10 11:15:00
7:15 AM,33.8,30.2,87,29.74,10.0,North,23.0,34.5,N/A,Rain,Light Rain,10,2013-03-10 12:15:00
7:35 AM,33.8,30.2,87,29.73,10.0,North,21.9,28.8,N/A,,Light Drizzle,10,2013-03-10 12:35:00
7:55 AM,33.8,30.2,87,29.74,7.0,North,21.9,28.8,N/A,,Overcast,360,2013-03-10 12:55:00
8:15 AM,33.8,30.2,87,29.74,10.0,North,25.3,29.9,N/A,,Overcast,10,2013-03-10 13:15:00
8:35 AM,33.8,30.2,87,29.75,10.0,North,21.9,27.6,N/A,,Overcast,360,2013-03-10 13:35:00
8:55 AM,33.8,30.2,87,29.77,10.0,North,19.6,26.5,N/A,,Overcast,360,2013-03-10 13:55:00
9:15 AM,33.8,30.2,87,29.77,10.0,North,20.7,33.4,N/A,,Overcast,360,2013-03-10 14:15:00
9:35 AM,33.8,30.2,87,29.75,10.0,North,24.2,28.8,N/A,,Light Drizzle,360,2013-03-10 14:35:00
9:55 AM,33.8,30.2,87,29.77,10.0,North,19.6,27.6,N/A,,Overcast,360,2013-03-10 14:55:00
10:15 AM,33.8,30.2,87,29.78,7.0,North,19.6,29.9,N/A,,Overcast,360,2013-03-10 15:15:00
10:35 AM,33.8,30.2,87,29.79,4.0,North,18.4,25.3,N/A,,Overcast,360,2013-03-10 15:35:00
10:55 AM,33.8,30.2,87,29.79,3.0,North,18.4,25.3,N/A,,Light Drizzle,360,2013-03-10 15:55:00
11:15 AM,33.8,30.2,87,29.78,3.0,North,21.9,27.6,N/A,,Drizzle,360,2013-03-10 16:15:00
11:35 AM,33.8,28.4,81,29.79,1.8,North,18.4,27.6,N/A,Snow,Light Snow,350,2013-03-10 16:35:00
11:55 AM,32.0,28.4,87,29.78,1.2,North,19.6,27.6,N/A,Snow,Light Snow,350,2013-03-10 16:55:00
12:15 PM,32.0,28.4,87,29.79,1.2,North,19.6,26.5,N/A,Snow,Light Snow,350,2013-03-10 17:15:00
12:35 PM,32.0,28.4,87,29.80,2.5,NNW,16.1,25.3,N/A,Snow,Light Snow,340,2013-03-10 17:35:00
12:55 PM,32.0,28.4,87,29.80,3.0,North,23.0,27.6,N/A,Snow,Light Snow,350,2013-03-10 17:55:00
1:15 PM,32.0,28.4,87,29.80,3.0,NNW,20.7,32.2,N/A,Snow,Light Snow,340,2013-03-10 18:15:00
1:35 PM,30.2,26.6,86,29.79,1.2,NNW,19.6,28.8,N/A,Snow,Light Snow,340,2013-03-10 18:35:00
1:55 PM,30.2,26.6,86,29.78,1.8,NNW,20.7,33.4,N/A,Snow,Light Snow,340,2013-03-10 18:55:00
2:15 PM,30.2,26.6,86,29.77,1.2,NNW,19.6,35.7,N/A,Snow,Light Snow,340,2013-03-10 19:15:00
2:35 PM,30.2,26.6,86,29.76,1.8,NNW,20.7,29.9,N/A,Snow,Light Snow,340,2013-03-10 19:35:00
2:55 PM,30.2,26.6,86,29.77,2.5,NNW,19.6,28.8,N/A,Snow,Light Snow,340,2013-03-10 19:55:00
3:15 PM,30.2,26.6,86,29.77,2.5,NNW,23.0,31.1,N/A,Snow,Light Snow,340,2013-03-10 20:15:00
3:35 PM,30.2,26.6,86,29.78,2.5,NNW,20.7,29.9,N/A,Snow,Light Snow,340,2013-03-10 20:35:00
3:55 PM,30.2,26.6,86,29.79,3.0,NNW,21.9,31.1,N/A,Snow,Light Snow,340,2013-03-10 20:55:00
4:15 PM,30.2,26.6,86,29.80,1.2,NNW,21.9,32.2,N/A,Snow,Light Snow,330,2013-03-10 21:15:00
4:35 PM,30.2,24.8,80,29.81,1.0,NNW,15.0,31.1,N/A,Snow,Light Snow,330,2013-03-10 21:35:00
4:55 PM,28.4,24.8,86,29.81,1.5,NNW,24.2,33.4,N/A,Snow,Light Snow,340,2013-03-10 21:55:00
5:15 PM,28.4,24.8,86,29.82,2.5,NNW,20.7,29.9,N/A,Snow,Light Snow,340,2013-03-10 22:15:00
5:35 PM,28.4,24.8,86,29.82,1.2,NNW,18.4,25.3,N/A,Snow,Light Snow,330,2013-03-10 22:35:00
5:55 PM,28.4,24.8,86,29.82,1.0,NNW,18.4,27.6,N/A,Snow,Light Snow,330,2013-03-10 22:55:00
6:15 PM,28.4,24.8,86,29.82,1.2,NW,18.4,31.1,N/A,Snow,Light Snow,320,2013-03-10 23:15:00
6:35 PM,28.4,24.8,86,29.82,1.2,NNW,20.7,32.2,N/A,Snow,Light Snow,330,2013-03-10 23:35:00
6:55 PM,28.4,24.8,86,29.83,1.5,NNW,20.7,26.5,N/A,Snow,Light Snow,330,2013-03-10 23:55:00
7:15 PM,28.4,24.8,86,29.83,2.0,NW,21.9,27.6,0.01,Snow,Light Snow,320,2013-03-11 00:15:00
7:35 PM,28.4,24.8,86,29.84,2.0,NNW,21.9,27.6,0.01,Snow,Light Snow,330,2013-03-11 00:35:00
7:55 PM,28.4,24.8,86,29.84,2.5,NNW,19.6,26.5,0.01,Snow,Light Snow,330,2013-03-11 00:55:00
8:15 PM,28.4,24.8,86,29.84,2.0,NNW,17.3,28.8,N/A,Snow,Light Snow,330,2013-03-11 01:15:00
8:35 PM,28.4,24.8,86,29.85,1.5,NNW,21.9,29.9,N/A,Snow,Light Snow,330,2013-03-11 01:35:00
8:55 PM,28.4,24.8,86,29.85,1.5,NNW,21.9,26.5,N/A,Snow,Light Snow,330,2013-03-11 01:55:00
9:15 PM,28.4,23.0,80,29.85,-9999.0,NNW,17.3,26.5,N/A,,Overcast,330,2013-03-11 02:15:00
9:35 PM,28.4,23.0,80,29.85,-9999.0,NNW,19.6,26.5,N/A,,Overcast,330,2013-03-11 02:35:00
9:55 PM,28.4,23.0,80,29.86,-9999.0,NNW,21.9,26.5,N/A,,Overcast,330,2013-03-11 02:55:00
10:15 PM,28.4,23.0,80,29.87,7.0,NNW,20.7,27.6,N/A,,Overcast,330,2013-03-11 03:15:00
10:35 PM,28.4,21.2,74,29.87,7.0,NNW,16.1,31.1,N/A,,Overcast,330,2013-03-11 03:35:00
10:55 PM,28.4,21.2,74,29.87,10.0,NW,18.4,28.8,N/A,,Overcast,320,2013-03-11 03:55:00
11:15 PM,26.6,21.2,80,29.88,10.0,NW,18.4,28.8,N/A,,Overcast,320,2013-03-11 04:15:00
11:35 PM,26.6,21.2,80,29.88,10.0,NW,17.3,27.6,N/A,,Overcast,320,2013-03-11 04:35:00
11:55 PM,26.6,21.2,80,29.88,10.0,NW,17.3,24.2,N/A,,Overcast,320,2013-03-11 04:55:00
12:35 AM,24.8,19.4,80,29.88,10.0,NW,17.3,24.2,N/A,,Overcast,320,2013-03-11 05:35:00
12:55 AM,24.8,19.4,80,29.87,4.0,NNW,17.3,23.0,N/A,Snow,Light Snow,330,2013-03-11 05:55:00